Regional Weather Roundup
Issued by NWS

Home | Current Version | Previous Version | Graphics & Text | Print | Product List | Glossary On
Versions: 1 2 3 4 5 6 7 8 9 10 11 12 13 14 15 16 17 18 19 20 21 22 23 24 25 26 27 28 29 30 31 32 33 34 35 36 37 38 39 40 41 42 43 44 45 46 47 48 49 50
000
ASUS43 KDMX 170406
RWRIA

WEATHER ROUNDUP FOR IOWA
NATIONAL WEATHER SERVICE DES MOINES IA
1000 PM CST THU NOV 16 2017

NOTE: "FAIR" INDICATES FEW OR NO CLOUDS BELOW 12,000 FEET WITH NO
SIGNIFICANT WEATHER AND/OR OBSTRUCTIONS TO VISIBILITY.

* - THESE STATIONS ARE NOT NWS STATIONS...THUS NOT UNDER NWS
QUALITY CONTROL.  THEY ALSO DO NOT REPORT WEATHER SUCH
AS PRECIPITATION OR FOG.

IAZ001>003-012>014-020>022-031>034-043>046-170500-
   NORTHWEST IOWA

CITY           SKY/WX    TMP DP  RH WIND       PRES   REMARKS
CARROLL *      PTCLDY    34  28  80 S13       29.93F WCI  25
CHEROKEE *     CLOUDY    35  29  80 S16       29.87F WCI  25
DENISON *      CLEAR     37  28  70 S23G31    29.90F WCI  26
LE MARS *      PTCLDY    39  28  65 S16       29.82F WCI  30
ORANGE CITY *  PTCLDY    37  30  75 SE14G22   29.82F WCI  29
SHELDON *      PTCLDY    34  28  80 SE17G28   29.82F WCI  23
SIOUX CITY     CLOUDY    39  28  64 SE13      29.84F WCI  31
SPENCER        PTCLDY    33  27  78 SE22      29.88F WCI  21
STORM LAKE *   CLOUDY    30  27  86 S14       29.90R WCI  20
$$

IAZ055>058-069>071-079>083-090>094-170500-
   SOUTHWEST IOWA

CITY           SKY/WX    TMP DP  RH WIND       PRES   REMARKS
ATLANTIC *     CLOUDY    39  30  70 S12       29.93F WCI  32
AUDUBON *      PTCLDY    37  30  75 S14G21    29.94S WCI  29
CLARINDA *       N/A     41  30  65 S12G18    29.97F
COUNCIL BLFS * CLOUDY    39  30  70 S17G23    29.90S WCI  30
CRESTON *      CLOUDY    37  28  70 SE18G24   29.98F WCI  27
HARLAN  *      PTCLDY    37  30  75 S12       29.96S WCI  30
LAMONI         PTCLDY    38  28  67 SE14      30.00F WCI  30
RED OAK *      CLOUDY    41  30  65 S13G21    29.95F
SHENANDOAH *   CLOUDY    41  30  65 SE15G23   29.94F
$$

IAZ047>049-059>061-072>074-084-170500-
   CENTRAL IOWA

CITY           SKY/WX    TMP DP  RH WIND       PRES   REMARKS
AMES           CLOUDY    31  29  92 SE18G25   29.99F WCI  19
ANKENY *       CLOUDY    32  28  86 SE15      30.02F WCI  22
BOONE *        CLOUDY    30  28  93 SE16G23   29.97F WCI  19
CHARITON *     CLOUDY    36  28  75 SE13      30.02F WCI  27
DES MOINES     PTCLDY    34  28  79 SE14      30.01F WCI  25
GRINNELL*      PTCLDY    31  28  92 SE13      30.06F WCI  21
KNOXVILLE *    PTCLDY    32  28  86 SE12      30.03S WCI  23
MARSHALLTOWN   CLOUDY    32  28  85 SE17      30.03F WCI  21
NEWTON *       CLOUDY    30  28  93 SE15      30.05S WCI  19
PELLA *        CLOUDY    31  28  91 SE12      30.07F WCI  21
PERRY *          N/A     34  29  83 SE16      29.96F WCI  23
$$

IAZ004>006-015-016-023>025-035-036-170500-
   NORTH CENTRAL IOWA

CITY           SKY/WX    TMP DP  RH WIND       PRES   REMARKS
ALGONA *       CLOUDY    32  32 100 S22G29    29.92R WCI  19
CLARION *      PTCLDY    32  32 100 SE24G30   29.94F WCI  19
ESTHERVILLE    CLOUDY    30  28  92 SE17G26   29.90R WCI  18
FORT DODGE *   PTCLDY    32  28  85 SE14G21   29.95F WCI  22
MASON CITY     CLOUDY    32  27  81 SE20      29.98F WCI  20
FOREST CITY *    N/A     32  30  93 SE17G23   29.95F WCI  21
WEBSTER CITY * CLOUDY    32  28  86 SE23      29.94F WCI  19
IOWA FALLS *     N/A     32  29  90 SE15      30.01F WCI  22
$$

IAZ007>011-017>019-026>030-037>042-050>054-066-170500-
   NORTHEAST IOWA

CITY           SKY/WX    TMP DP  RH WIND       PRES   REMARKS
CEDAR RAPIDS   PTCLDY    32  28  85 SE16G23   30.11F WCI  21
CHARLES CITY * CLOUDY    34  32  93 SE15G23   30.03S WCI  24
CLINTON *      CLOUDY    33  28  81 SE14      30.20R WCI  23
DECORAH *      CLOUDY    34  28  80 S15G24    30.07S WCI  24
DUBUQUE        CLOUDY    32  27  81 S15       30.13F WCI  22
MONTICELLO *   CLOUDY    32  28  86 SE15G23   30.12F WCI  22
OELWEIN *      CLOUDY    32  32 100 SE23G31   30.06F WCI  19
WATERLOO       PTCLDY    33  27  78 SE17G29   30.04F WCI  22
$$

IAZ064-065-067-068-078-170500-
   EAST CENTRAL IOWA

CITY           SKY/WX    TMP DP  RH WIND       PRES   REMARKS
DAVENPORT      CLOUDY    33  28  81 SE13      30.20S WCI  24
IOWA CITY      PTCLDY    33  28  81 SE9       30.16F WCI  25
MT. PLEASANT * CLOUDY    31  29  93 SE12      30.14F WCI  22
MUSCATINE *    CLOUDY    32  28  86 SE8       30.17F WCI  25
QUAD CITIES    MOCLDY    33  28  81 SE9       30.18F WCI  25
$$

IAZ062-063-075>077-085>089-095>099-170500-
   SOUTHEAST IOWA

CITY           SKY/WX    TMP DP  RH WIND       PRES   REMARKS
BURLINGTON     CLOUDY    31  29  92 SE13      30.15F WCI  21
FAIRFIELD *    PTCLDY    30  28  93 SE13G18   30.10F WCI  20
FORT MADISON * CLOUDY    30  30 100 SE10      30.15F WCI  21
KEOKUK *       CLOUDY    32  30  93 E13       30.14F WCI  22
OSKALOOSA *      N/A     30  28  92 SE16      30.07F WCI  19
OTTUMWA        PTCLDY    31  28  89 SE12      30.07F WCI  22
WASHINGTON *   PTCLDY    32  32 100 SE13      30.14F WCI  22
$$

ABBREVIATIONS USED IN REMARKS
   TC - TEMPERATURES IN CELSIUS
  WCI - WIND CHILL INDEX
   HX - HEAT INDEX
  VSB - VISIBILITY
$$





USA.gov is the U.S. government's official web portal to all federal, state and local government web resources and services.